User: anonymous   Login
Location: Shades State Park
(39.9310°N, 87.0690°W)
Time: 04:59:38
(UTC-05:00)
Language:

H-2A R/B - Orbit

View from above orbital plane
View from above orbital plane
View from above satellite
View from above satellite

Ground track
Ground track

The orbit data is extracted from the following two-line orbital elements,

1 27601U 02056E   14355.22695056  .00000535  00000-0  21070-3 0  2610
2 27601 098.4692 073.4616 0073569 106.5519 312.2312 14.31497958627752
Epoch (UTC): 21 December 2014 05:26:48
Eccentricity: 0.0073569
inclination: 98.4692°
perigee height: 734 km
apogee height: 839 km
right ascension of ascending node: 73.4616°
argument of perigee: 106.5519°
revolutions per day: 14.31497958
mean anomaly at epoch: 312.2312°
orbit number at epoch: 62775

The dashed part of the orbit path shows where the satellite is in the earth's shadow,  

DLR